GFSSE_850_thetae_000.txt.gz
Theta_e
332 329 318 319 319 320 321 320 314 313 317 320 320 318 315 312 309 309 306 306 308 311 319 318 318 319 315 319 339 341 341 341 339 339 340 340 340 345 346 341 337 345 337
327 328 319 319 320 321 321 318 314 313 315 318 319 319 317 313 313 311 308 306 308 310 318 325 323 325 321 312 335 341 341 342 341 341 341 340 340 342 344 338 340 341 335
326 328 321 319 321 320 319 317 314 316 316 318 319 319 319 315 315 315 312 307 309 310 316 325 329 327 326 314 329 340 341 342 341 341 342 340 340 342 341 337 335 335 333
326 322 327 320 314 317 315 316 316 318 319 320 320 321 320 318 320 319 315 310 311 313 314 321 326 327 329 321 323 337 341 341 342 341 341 341 340 342 339 335 334 333 333
325 325 324 315 316 316 316 317 317 318 320 320 320 321 320 324 325 324 322 313 315 324 323 325 327 328 327 328 319 331 340 341 341 341 340 341 341 342 338 333 331 332 333
322 322 322 316 315 316 316 317 318 318 319 320 321 321 323 323 325 325 324 318 310 322 322 324 326 329 325 328 320 328 336 340 341 341 341 340 341 340 336 333 330 329 329
321 321 322 319 315 316 316 316 316 317 318 320 321 323 323 323 324 325 326 323 315 317 322 317 322 329 329 325 325 324 336 338 340 341 340 341 340 340 337 333 327 326 329
318 316 320 320 315 315 316 316 314 314 317 320 320 319 319 319 321 324 325 325 323 323 320 313 317 327 329 327 326 320 333 336 339 341 342 340 340 339 335 333 329 331 331
315 317 320 318 318 312 311 314 319 320 319 319 320 320 321 321 321 323 324 324 323 321 322 314 310 323 328 328 327 321 329 335 338 339 339 340 339 336 334 331 330 330 331
318 318 319 319 318 320 322 320 320 320 320 319 319 319 322 321 321 321 324 324 322 322 323 322 312 321 326 328 326 323 323 335 337 336 331 336 338 334 337 336 330 330 332
319 318 319 319 322 322 322 322 320 321 319 318 318 320 320 322 326 326 324 324 322 322 321 321 312 320 326 328 326 323 321 333 337 337 333 335 337 337 334 329 329 331 329
319 318 318 322 321 320 323 324 324 322 320 319 319 319 320 322 323 323 324 323 323 323 321 321 315 321 325 330 329 323 329 332 336 341 335 333 334 336 336 332 333 332 333
320 318 317 322 321 320 323 324 324 323 323 322 321 319 319 319 321 320 322 322 323 323 325 324 320 324 329 328 330 328 327 331 336 340 337 336 336 339 331 330 328 327 327
319 318 323 323 322 320 322 324 324 324 324 325 323 318 320 321 322 320 320 322 323 324 325 324 324 328 328 327 330 329 328 333 335 339 337 337 336 337 332 331 329 328 334
318 324 325 322 321 321 323 324 324 323 323 321 319 318 320 320 319 319 321 321 323 324 324 324 326 328 326 327 331 330 330 332 332 337 337 337 338 337 331 330 333 332 332
319 326 324 324 325 324 324 323 323 324 322 323 316 318 321 319 320 318 321 321 321 324 324 326 326 328 329 329 329 329 331 333 336 337 334 336 336 335 331 335 334 331 332
321 326 324 325 326 325 325 325 324 324 322 323 324 321 321 320 321 320 320 320 323 324 323 325 325 328 329 329 330 329 331 333 336 337 335 334 334 332 333 330 325 328 327
323 325 323 325 326 326 325 325 325 325 323 321 321 321 322 321 321 322 321 319 320 319 323 326 327 328 328 329 329 328 331 332 335 337 336 334 334 332 329 327 329 326 325
322 324 323 325 326 321 322 324 325 323 323 322 321 321 322 321 321 321 322 322 321 323 324 326 327 327 328 329 329 328 329 332 336 337 335 336 331 327 328 331 327 326 325
321 323 321 325 325 320 327 326 325 325 325 323 320 319 321 322 322 321 323 323 321 324 324 325 327 328 328 329 328 329 331 333 336 336 334 333 333 326 329 327 328 326 326
321 324 325 324 324 322 327 328 328 327 323 322 322 323 324 322 321 321 324 321 322 326 326 326 328 328 329 329 329 330 333 333 334 333 332 331 328 326 328 330 330 327 330
320 323 325 325 322 323 326 325 327 327 325 325 324 325 323 323 322 323 323 323 324 324 325 326 328 328 329 329 331 333 332 332 333 331 330 328 329 329 330 329 329 330 332
321 323 323 324 322 323 323 328 326 327 327 326 326 325 325 323 322 323 323 325 325 325 326 326 328 330 329 327 333 332 331 331 332 331 329 331 328 330 331 330 330 330 330
321 322 323 324 321 324 323 326 328 328 328 327 327 326 326 326 325 324 324 324 325 326 325 326 327 329 330 328 331 330 329 330 330 331 332 329 330 331 331 331 331 330 330
321 322 324 326 320 324 323 322 326 329 329 327 326 325 325 327 326 325 325 324 324 325 325 325 326 330 330 331 330 329 329 327 330 329 329 330 330 328 329 328 331 328 327
321 321 323 326 322 325 327 324 325 325 327 327 328 325 324 326 327 327 326 325 324 325 325 327 328 326 328 330 328 326 326 327 327 329 329 328 328 329 330 330 330 329 329

GFSSE_850_thetae_003.txt.gz
Theta_e
333 334 319 319 319 320 320 321 320 313 313 316 317 317 316 313 313 312 311 308 306 307 312 314 319 317 315 312 325 338 340 342 344 340 343 341 340 343 346 344 339 347 340
326 331 324 319 320 320 317 319 317 313 315 317 317 319 319 317 314 314 314 313 307 309 310 324 324 320 317 314 315 335 340 341 341 340 341 341 340 342 346 341 344 343 337
327 330 328 321 318 316 316 317 315 316 317 318 320 323 323 322 318 316 318 315 312 309 326 322 325 328 322 320 310 331 340 340 341 340 340 342 342 341 345 338 345 336 335
327 331 332 332 318 315 314 316 316 316 317 318 320 323 326 326 322 320 322 321 316 312 325 326 328 325 327 324 316 326 339 340 341 341 341 341 342 339 343 337 337 334 334
328 328 331 326 318 315 316 315 315 316 317 318 319 321 323 323 324 325 325 324 323 316 325 326 325 325 327 328 327 318 336 340 341 341 341 342 342 340 341 336 330 333 334
324 324 325 324 321 316 316 316 317 318 319 320 319 319 319 320 323 325 325 326 325 322 324 324 323 326 327 327 329 319 330 339 341 341 341 342 342 340 339 333 334 335 335
323 323 323 324 321 317 315 317 320 317 317 317 316 317 318 321 324 323 322 324 326 326 324 320 320 322 328 328 327 324 326 335 340 342 341 341 341 341 339 332 332 330 328
323 324 326 326 322 319 315 316 316 315 314 314 318 320 321 320 320 320 320 323 325 327 324 323 311 319 325 329 326 327 323 334 339 343 341 341 342 341 339 334 334 331 327
323 323 323 323 324 320 320 319 317 317 319 320 320 320 321 321 321 321 321 323 325 326 325 317 310 313 322 329 328 327 322 331 339 339 340 340 343 342 340 336 336 332 330
322 321 322 320 319 321 323 325 324 322 320 321 321 319 318 318 319 321 321 322 325 325 322 321 317 311 320 327 329 326 323 329 337 340 339 339 340 340 340 337 333 331 329
322 321 321 320 321 323 325 325 324 326 325 321 321 320 319 322 325 325 326 325 324 324 321 323 321 314 317 324 328 327 322 333 336 339 338 335 332 335 337 334 332 329 330
322 322 320 320 324 325 325 325 326 326 325 322 319 319 319 323 324 325 325 325 324 324 320 322 321 315 312 329 329 327 327 334 336 339 337 331 336 338 336 334 332 332 333
323 322 319 322 326 325 325 326 325 325 323 324 324 324 322 318 322 324 324 325 323 324 324 323 324 319 323 328 331 331 329 334 335 337 337 334 337 339 338 333 331 329 329
322 321 325 327 328 328 326 326 325 326 324 324 324 324 321 323 323 323 322 324 324 325 325 326 326 321 324 328 332 331 328 334 335 337 337 334 336 338 334 330 329 329 331
323 323 327 328 329 328 327 326 327 325 324 326 324 324 322 323 322 320 323 322 323 324 325 325 328 324 327 331 332 332 329 333 333 337 337 337 338 338 334 331 329 331 333
322 326 327 328 329 328 327 327 327 325 325 327 325 323 322 323 320 320 322 323 323 322 325 325 327 327 327 328 333 331 330 334 331 336 337 338 338 337 336 330 327 328 331
322 327 327 327 326 328 327 328 326 326 326 326 325 323 325 324 322 321 321 323 321 323 325 325 326 329 327 330 332 330 331 334 331 335 338 338 338 337 334 329 328 331 333
324 326 327 326 326 328 328 328 328 326 324 323 322 319 318 322 322 323 320 322 324 324 325 326 327 328 329 330 330 330 332 330 332 337 337 336 337 335 332 332 328 327 330
324 326 326 327 327 328 329 330 329 326 326 325 323 321 320 321 323 323 323 320 320 322 325 327 327 327 330 329 330 330 332 329 334 338 335 335 335 331 332 331 327 329 328
324 327 327 327 328 326 328 329 330 327 325 324 323 322 322 322 323 324 323 323 321 322 323 326 326 327 330 329 329 331 332 330 336 338 338 336 334 333 331 328 327 326 328
323 327 328 327 328 326 328 329 329 329 329 327 326 325 325 324 324 326 323 324 322 324 324 327 327 327 329 330 330 331 329 332 336 338 337 334 331 328 326 328 324 326 329
324 326 327 327 327 326 328 329 330 327 328 328 328 326 324 324 324 324 324 325 326 323 325 327 328 329 331 331 331 330 335 335 336 336 336 333 329 331 329 326 327 328 328
323 326 327 327 327 325 328 329 330 331 328 327 327 328 326 323 324 324 325 326 324 326 325 325 327 330 330 328 330 332 332 333 334 334 333 333 329 327 326 329 328 328 329
323 326 326 326 327 329 324 328 330 330 329 329 326 328 328 325 325 325 325 326 326 325 326 328 327 330 328 329 329 332 332 332 332 331 329 327 327 329 330 330 328 328 330
323 325 326 327 327 330 329 328 329 330 330 328 327 326 328 326 326 325 325 326 326 327 328 327 327 328 329 330 331 331 330 331 331 330 331 331 331 331 329 330 330 330 327
322 324 327 328 326 329 329 328 330 330 331 330 328 325 327 327 326 325 325 325 325 325 327 326 328 328 329 328 330 329 330 330 331 330 330 331 331 332 331 331 330 329 328

GFSSE_850_thetae_006.txt.gz
Theta_e
337 334 326 317 318 319 318 317 317 317 313 313 314 315 316 316 313 312 312 313 312 307 307 313 310 312 315 314 313 324 338 341 343 344 344 346 345 342 344 345 340 342 338
332 331 327 319 319 319 317 315 316 315 315 315 316 317 318 319 317 316 316 316 314 313 308 318 325 313 313 316 313 315 332 340 342 343 342 344 341 342 345 343 344 345 340
330 331 329 326 321 318 315 315 314 316 318 317 320 324 321 322 321 318 318 319 319 316 314 318 325 323 318 317 315 312 327 339 341 342 341 342 341 340 345 340 345 340 337
328 331 333 333 330 319 315 314 315 317 317 317 321 321 321 324 324 324 322 324 323 322 320 325 327 325 316 320 317 313 321 339 340 341 340 341 343 341 344 340 346 338 332
328 328 330 328 325 322 317 315 315 316 316 318 318 320 320 322 323 324 324 323 324 324 325 326 326 325 320 319 322 320 316 336 340 340 341 340 340 340 340 341 340 334 332
325 326 326 325 324 323 319 316 316 317 317 318 318 318 319 319 321 323 323 324 323 327 328 326 325 322 321 326 325 327 316 332 339 340 341 341 340 341 339 341 336 332 330
324 324 324 324 323 322 318 316 316 320 321 318 317 316 315 315 317 320 322 322 321 323 327 327 323 319 318 327 326 326 324 325 337 340 342 342 341 342 341 340 333 333 334
325 323 325 327 324 322 318 317 315 315 315 315 315 315 319 320 320 321 321 321 322 326 325 328 325 313 318 322 327 326 328 323 336 339 341 341 342 342 341 339 333 331 333
325 325 324 325 323 321 321 322 324 324 324 322 320 320 320 320 320 319 320 321 320 325 326 327 325 310 311 318 326 327 327 322 335 337 340 340 340 341 340 334 332 331 328
323 323 323 322 322 320 323 325 326 326 324 324 322 321 321 319 318 318 318 320 320 324 325 326 326 312 310 313 324 328 325 323 332 338 339 340 341 340 341 334 336 331 332
323 323 323 322 321 321 323 326 325 325 327 325 324 323 320 318 321 324 326 324 324 323 324 325 319 315 311 311 321 328 325 324 330 337 339 340 340 342 339 338 337 334 333
323 323 323 321 320 319 324 325 326 327 326 325 323 317 318 319 321 321 324 325 324 325 324 325 319 321 318 310 318 327 326 323 334 336 337 337 339 341 336 339 338 334 331
324 324 322 321 323 322 325 327 326 326 326 325 321 320 319 318 319 322 324 324 323 324 324 324 318 322 320 312 328 329 326 331 331 335 337 336 331 336 338 337 335 334 330
324 323 325 328 328 328 328 327 327 327 327 322 324 323 322 322 323 324 323 323 324 324 324 325 323 323 322 323 328 330 328 330 332 332 336 333 335 338 338 336 335 333 330
324 324 328 327 328 328 326 328 327 325 324 324 324 324 324 320 323 323 323 322 324 324 324 324 325 325 321 326 327 329 329 329 331 332 336 334 336 337 336 333 334 331 332
325 325 328 328 329 327 327 327 328 325 326 325 325 326 322 320 322 321 321 322 322 324 324 324 325 325 323 325 328 330 331 331 331 331 337 335 336 338 336 334 334 330 330
325 327 328 327 327 327 329 329 327 328 326 325 324 325 325 319 323 322 322 322 322 322 323 324 325 327 326 327 325 330 332 332 331 332 337 337 336 338 335 334 333 330 332
324 327 328 328 327 328 329 329 329 329 326 326 324 323 322 319 321 322 323 321 322 322 322 324 324 325 326 324 326 330 330 331 328 330 336 336 336 336 332 333 332 331 327
325 327 328 328 327 327 325 328 329 330 327 325 325 324 322 321 320 322 324 321 323 323 323 324 326 327 323 327 330 330 332 330 325 333 336 338 335 335 334 330 328 329 327
326 327 328 327 327 327 327 329 330 330 326 327 326 325 323 322 322 321 323 323 320 323 324 324 327 326 327 328 329 330 329 327 327 334 337 337 334 334 331 330 328 333 328
326 326 330 328 329 326 328 329 329 326 328 328 328 326 325 325 322 323 323 324 321 321 322 327 326 326 327 328 330 330 331 327 330 335 336 336 334 332 332 330 329 328 327
325 326 329 329 329 323 330 329 329 330 327 328 328 329 325 326 324 324 324 324 322 322 322 325 325 327 329 329 330 332 333 333 335 336 336 335 332 331 331 330 328 327 327
326 325 329 329 327 324 328 329 330 330 328 328 328 328 328 324 324 324 324 325 323 322 323 326 326 327 329 329 330 328 330 330 333 334 335 334 332 329 328 328 327 326 327
326 325 328 328 328 330 325 329 329 330 329 328 327 327 327 326 325 324 323 326 324 325 323 325 326 325 329 328 328 328 330 332 333 333 331 330 331 327 328 325 327 328 328
326 326 327 328 328 331 330 326 330 329 328 329 327 326 327 324 326 325 325 324 325 326 325 324 325 324 327 325 328 331 332 331 332 331 332 330 328 327 326 328 328 326 330
325 326 328 329 327 331 331 330 330 330 328 328 327 326 327 327 325 325 325 323 325 327 325 323 324 325 328 326 330 331 331 331 330 329 330 329 329 329 331 327 328 328 329

GFSSE_850_thetae_009.txt.gz
Theta_e
336 333 328 319 317 318 318 316 316 315 314 313 314 315 315 316 317 314 313 312 312 312 310 306 307 308 310 313 312 314 329 339 342 345 346 346 344 344 341 343 343 342 337
335 333 329 324 319 319 317 314 314 315 314 315 315 315 318 316 317 318 317 317 317 318 312 310 307 307 309 312 315 313 316 332 340 342 343 343 344 344 340 342 343 342 339
330 330 329 329 325 323 317 314 313 314 314 314 315 316 322 319 317 320 321 320 319 321 320 315 311 309 310 311 315 315 313 324 338 341 343 344 344 341 341 344 343 342 338
327 327 327 327 325 324 322 319 313 314 315 316 315 316 316 317 318 321 322 323 322 324 323 322 319 315 310 311 316 316 316 319 337 340 342 341 342 340 343 344 343 341 335
325 325 327 328 328 325 323 322 316 315 318 324 322 317 316 318 317 322 323 322 322 323 326 328 323 327 319 310 316 324 328 316 337 339 341 341 341 341 341 343 343 339 334
327 328 329 329 326 323 323 322 318 320 321 321 320 318 318 319 320 323 321 320 321 322 323 328 326 325 323 319 319 326 326 320 334 339 339 340 339 340 340 342 342 334 330
324 325 324 324 323 321 323 319 316 316 317 320 322 321 322 323 316 315 318 319 320 324 326 325 328 324 318 318 326 325 325 323 328 338 340 339 340 339 340 341 340 333 332
324 324 323 323 320 321 319 318 318 319 319 318 317 317 316 315 319 320 320 320 320 321 323 325 327 326 317 314 323 326 324 325 322 336 340 340 340 340 340 340 339 333 334
324 322 320 320 322 321 321 321 323 324 325 324 323 323 322 320 320 320 320 320 320 322 321 322 326 327 317 314 315 325 325 326 320 334 339 340 340 341 341 341 338 336 331
322 323 322 323 322 321 321 322 323 326 325 324 325 323 320 320 319 318 317 318 318 320 318 324 325 327 321 308 313 320 326 326 320 333 337 338 339 341 342 340 338 334 333
323 323 323 322 322 322 321 319 325 325 325 326 325 325 323 319 317 317 321 324 325 323 319 324 325 326 324 309 308 316 327 325 321 331 335 338 340 340 342 340 339 334 329
323 323 323 323 322 321 318 322 327 326 326 325 325 325 318 317 317 317 319 323 324 324 324 324 325 326 314 310 308 315 327 324 323 332 336 338 340 340 339 337 336 335 331
324 323 323 323 321 320 316 323 325 326 326 326 325 322 323 321 318 320 322 323 322 323 324 324 324 322 320 315 309 315 326 325 323 331 336 338 338 338 340 339 338 337 332
323 323 323 322 323 316 321 319 322 326 327 327 326 323 322 323 317 323 324 324 323 323 323 324 324 320 322 319 313 326 327 325 327 331 334 336 337 338 340 337 338 334 334
324 324 323 322 322 320 316 324 326 327 326 324 324 324 325 325 321 321 322 321 322 323 324 324 324 321 322 321 320 328 328 328 330 329 333 335 332 335 336 338 337 336 332
324 324 323 323 319 324 318 327 326 327 328 326 325 324 325 326 322 321 321 321 321 323 324 323 324 324 324 321 325 328 329 329 330 328 330 333 333 335 337 338 336 334 333
324 324 323 323 326 326 324 325 327 329 329 327 326 325 324 325 324 320 322 322 321 322 324 323 324 325 324 322 326 327 328 329 330 329 330 334 335 338 338 333 332 332 334
325 324 326 324 326 326 325 326 328 329 328 327 325 326 325 323 322 319 321 323 321 322 322 323 324 326 325 326 324 327 330 330 331 328 330 335 335 337 335 334 333 334 329
326 323 327 325 326 326 322 328 329 330 327 326 326 326 324 322 321 319 321 323 321 322 321 322 324 326 325 326 326 325 329 330 330 329 331 335 334 336 336 335 333 331 330
325 322 324 322 325 323 324 328 329 326 326 328 326 327 325 324 323 319 321 323 321 323 322 323 324 324 326 323 324 328 329 329 328 328 332 335 334 335 334 333 332 334 328
326 323 322 327 327 325 325 329 329 328 327 327 327 328 327 325 323 321 321 323 322 322 323 323 325 326 325 327 326 323 328 329 326 330 336 332 335 335 332 332 332 330 328
326 323 325 328 328 326 327 329 329 328 329 328 328 328 328 325 325 322 322 323 322 322 323 324 326 326 326 327 328 328 330 328 330 332 334 333 333 334 332 331 331 328 326
325 324 327 328 328 324 328 330 329 329 328 328 328 326 327 324 324 323 324 324 322 322 321 325 325 326 326 328 329 330 329 328 331 334 334 334 332 331 330 328 330 327 328
325 325 327 328 326 330 328 325 325 327 328 328 328 327 325 324 324 324 323 323 323 323 323 325 325 325 327 328 329 329 325 328 332 332 333 332 332 332 331 329 329 325 327
325 324 328 327 326 328 330 330 328 329 327 328 327 326 327 324 325 323 324 324 326 324 324 325 326 326 324 327 329 328 329 331 332 331 331 331 332 331 329 329 328 327 327
326 324 326 328 327 329 331 330 328 328 326 327 325 326 326 327 325 325 323 323 326 326 323 324 324 324 323 327 327 326 328 330 331 331 330 328 329 328 328 327 327 327 327

GFSSE_850_thetae_015.txt.gz
Theta_e
331 334 328 323 315 314 316 317 316 314 313 313 312 311 312 312 313 314 314 316 315 313 312 309 308 306 307 309 310 311 319 334 342 345 346 344 343 343 343 341 343 341 336
333 335 328 320 317 317 318 317 316 315 314 315 314 313 313 313 315 317 316 316 317 316 316 316 312 309 306 308 309 311 311 318 333 341 345 345 344 344 344 339 341 342 336
334 334 328 325 323 324 321 320 320 318 316 316 314 313 313 313 319 316 315 315 320 322 321 320 319 317 310 307 309 311 313 312 318 333 340 344 344 345 344 341 340 342 340
328 330 329 326 326 325 324 323 323 320 319 316 314 314 316 318 316 314 314 315 317 321 323 322 322 321 317 312 309 312 313 313 313 322 335 340 344 344 344 343 343 342 341
325 323 323 325 326 326 326 325 322 321 320 318 316 320 326 327 323 323 320 317 317 323 329 330 333 330 322 320 316 317 313 313 313 318 329 337 342 343 343 344 342 342 342
322 320 324 327 328 328 327 323 321 319 316 314 317 322 323 324 324 323 323 322 324 323 328 327 329 331 329 325 325 314 310 325 317 315 329 337 341 342 342 342 341 343 341
318 320 324 327 328 327 324 322 319 318 317 315 316 319 320 324 324 322 322 323 323 322 326 327 327 326 327 327 324 322 326 327 324 315 328 337 340 342 341 341 343 343 339
319 322 323 325 325 323 320 320 320 319 319 317 321 323 323 323 322 322 322 321 321 323 324 326 325 325 324 326 327 323 326 322 325 320 324 335 339 340 340 341 343 343 337
324 323 322 324 323 322 320 322 321 321 320 319 323 324 324 323 322 322 320 321 321 325 325 326 324 324 324 324 326 326 320 324 321 321 320 332 338 339 340 340 342 343 340
323 322 322 323 322 321 322 322 321 321 319 323 325 324 324 323 324 322 318 317 319 324 328 328 326 322 322 323 325 326 318 320 323 321 319 330 337 339 339 339 341 342 338
322 322 323 322 322 322 322 322 321 319 319 324 325 325 324 324 325 321 318 317 317 321 323 322 322 324 322 322 325 327 319 316 325 322 319 329 337 339 338 339 340 342 336
322 322 322 322 322 322 322 321 319 319 319 323 325 325 325 325 325 322 319 317 317 320 323 325 326 323 322 323 326 327 321 314 318 323 320 328 336 338 339 339 340 341 338
320 322 322 322 322 322 321 320 317 318 322 324 325 324 326 326 324 323 318 318 320 319 320 323 324 323 322 324 325 326 320 310 316 324 322 326 335 337 338 340 340 340 338
321 323 322 323 322 322 322 317 318 322 325 326 326 326 326 325 323 323 320 319 323 323 323 322 322 324 323 324 325 326 318 308 320 325 321 325 334 336 339 340 340 340 338
322 323 323 323 322 322 320 317 318 322 326 328 327 327 326 325 325 323 324 319 320 321 320 321 322 323 323 324 325 316 310 308 325 325 321 326 334 336 338 339 340 340 335
323 323 323 322 322 323 318 316 317 324 328 327 328 326 325 325 325 324 325 323 320 321 320 320 322 322 323 324 321 320 310 318 326 325 322 329 334 337 338 340 339 338 337
323 323 323 323 323 321 317 315 321 325 327 328 328 326 326 325 325 325 324 325 320 322 321 320 323 323 323 323 320 320 315 327 327 325 328 331 333 335 337 338 339 336 335
323 323 323 324 323 318 317 317 322 326 326 325 326 326 326 326 325 324 324 323 321 322 321 321 323 323 323 323 321 320 323 328 326 328 330 329 332 332 335 337 333 336 336
323 323 324 324 322 316 315 319 323 326 325 325 325 326 327 327 326 324 322 322 319 322 321 321 322 323 323 324 323 319 324 327 326 328 329 328 329 331 333 336 335 335 334
323 323 324 324 318 316 316 320 325 326 327 327 328 327 327 327 327 324 322 321 320 323 321 322 322 323 324 324 323 323 325 326 327 328 329 328 329 332 332 334 336 330 330
323 324 324 322 317 316 319 320 325 326 326 327 327 328 328 327 327 324 323 319 321 323 322 321 322 323 324 324 324 324 325 327 327 328 330 329 329 332 334 335 334 331 334
324 325 324 319 318 319 320 324 325 324 326 328 327 328 327 327 325 324 321 320 322 322 322 321 321 322 325 324 324 324 325 326 327 329 328 329 330 331 335 334 333 331 334
325 325 323 318 319 320 323 324 324 325 327 326 327 328 327 325 324 324 322 322 323 321 322 322 322 323 324 324 323 325 326 327 327 329 331 330 332 333 334 334 333 333 331
325 324 320 320 320 321 326 325 325 326 325 327 327 327 326 325 324 322 322 323 322 321 323 322 323 323 324 323 324 324 327 327 328 330 330 330 332 333 333 332 327 332 329
325 323 321 322 323 322 325 327 325 326 325 325 325 325 326 326 324 323 323 322 322 322 322 324 323 325 324 325 325 326 324 326 327 329 330 332 332 331 332 332 331 330 329
325 323 324 323 323 324 327 328 325 327 325 324 325 325 326 326 325 323 323 322 322 322 322 324 324 324 324 325 326 323 324 326 327 329 331 331 331 331 329 330 331 330 329

GFSSE_850_thetae_021.txt.gz
Theta_e
329 326 328 325 324 321 314 315 317 319 319 317 315 313 311 310 310 310 311 311 312 313 313 312 310 308 307 306 307 308 312 328 335 342 344 343 342 342 342 343 343 342 334
329 327 328 327 326 318 317 319 319 320 320 318 317 315 313 309 309 310 311 316 314 313 314 315 315 315 310 308 306 307 308 311 325 335 341 345 343 342 342 342 342 343 338
327 326 326 327 326 320 321 320 320 320 321 318 317 316 314 311 312 313 313 312 311 311 315 319 319 318 318 315 309 307 307 309 310 319 335 343 344 344 342 343 342 342 341
325 324 326 325 323 322 322 321 321 322 321 318 316 315 315 313 315 319 318 319 313 311 312 318 324 324 321 321 318 311 307 308 309 310 318 334 342 343 344 343 343 341 342
325 323 322 321 322 322 322 321 322 322 319 317 316 314 315 314 319 325 325 323 321 320 319 327 329 331 331 328 324 321 314 308 307 309 311 318 335 341 344 344 344 342 342
323 322 320 319 322 322 323 323 322 321 319 317 316 315 314 318 327 326 325 324 324 325 326 329 330 327 329 329 329 327 323 318 309 318 311 311 324 338 341 344 344 343 342
323 321 319 320 322 323 325 324 324 323 320 318 318 317 316 323 325 323 324 326 328 327 327 326 325 326 322 325 327 328 328 324 318 327 314 311 314 331 339 342 343 344 343
322 319 318 320 322 324 325 325 325 323 321 319 320 319 317 324 323 323 323 322 322 321 324 327 328 324 328 326 325 326 328 327 327 325 317 313 312 324 337 341 342 342 343
322 319 318 319 322 324 325 326 326 324 321 320 320 320 318 322 323 323 321 321 320 320 320 325 326 324 324 325 323 327 325 328 329 330 321 316 313 321 335 339 341 342 343
322 320 319 319 322 324 326 327 327 323 321 321 321 320 319 322 323 322 322 322 320 316 317 319 324 325 326 325 325 325 324 325 329 330 328 318 314 322 334 340 341 341 341
323 320 321 321 321 322 326 328 326 322 321 321 321 319 320 322 324 323 323 324 321 319 316 316 318 324 324 325 325 325 323 327 330 330 327 314 315 319 332 337 341 340 341
324 321 322 321 323 324 326 328 324 322 322 321 319 317 319 322 324 324 325 324 322 318 316 316 319 325 327 328 327 324 326 329 329 329 325 317 317 317 330 335 339 340 340
325 322 322 322 323 325 326 326 323 322 322 321 316 319 323 324 324 325 325 323 322 317 318 318 318 322 324 325 329 329 328 328 329 329 320 321 319 317 325 335 337 339 340
326 324 322 323 322 324 328 324 322 322 321 317 318 324 325 325 326 326 326 324 323 320 320 323 322 321 319 323 325 327 326 327 328 327 315 318 322 318 323 334 337 338 339
326 325 323 323 323 323 325 323 322 322 320 316 321 326 326 327 325 326 326 325 324 323 319 321 322 322 321 322 323 324 325 326 326 325 312 313 322 319 323 333 337 338 338
326 325 324 323 323 324 324 323 322 321 316 318 325 327 328 327 326 325 326 325 324 324 321 321 320 319 323 322 324 323 324 325 325 325 310 313 323 320 323 333 336 338 339
326 325 324 323 323 324 323 323 322 320 316 323 325 327 327 328 327 326 325 325 325 325 323 321 321 319 321 322 323 323 324 325 319 312 308 322 325 320 323 333 336 338 338
325 325 324 324 324 324 323 322 322 316 321 325 325 325 326 327 327 326 327 325 324 325 324 321 322 320 322 323 323 323 324 321 316 309 316 325 324 320 327 333 336 338 338
325 324 323 323 323 323 322 322 320 317 323 326 327 327 327 326 327 327 327 326 324 324 324 320 322 321 322 323 323 324 322 322 312 320 326 326 323 324 330 333 334 338 339
324 323 323 323 322 322 322 322 316 319 324 326 326 327 328 328 328 328 328 326 323 323 322 320 322 321 322 323 323 322 320 320 320 326 326 327 327 329 330 332 334 330 333
323 323 322 322 322 322 323 320 317 321 325 325 325 327 328 328 328 328 327 325 322 321 319 323 322 322 322 323 323 323 322 318 325 326 325 327 327 327 329 330 334 330 328
321 322 322 322 322 323 321 317 319 324 323 326 325 326 326 328 328 327 326 325 322 320 321 323 322 322 323 323 324 324 324 323 325 325 325 325 327 326 327 331 333 333 331
321 322 322 323 323 322 317 320 323 323 325 325 325 327 327 327 326 325 325 324 320 321 322 322 321 322 322 324 323 324 324 325 326 326 326 327 328 328 328 332 332 330 329
321 322 323 324 322 319 320 322 323 324 325 324 324 325 325 326 326 323 324 321 321 323 322 322 321 322 323 323 323 323 322 324 329 328 328 328 328 331 330 332 332 331 331
323 324 324 323 320 320 321 323 325 324 325 324 324 325 325 325 326 322 322 322 323 322 322 322 321 321 323 323 322 323 324 326 324 327 328 331 330 330 331 331 332 332 330
324 324 323 321 320 320 321 325 325 326 325 325 324 325 325 326 326 323 323 322 321 322 322 322 322 323 323 324 323 323 325 325 323 327 328 329 330 330 331 327 330 331 328

GFSSE_850_thetae_027.txt.gz
Theta_e
335 324 325 326 323 323 319 316 316 317 319 316 315 315 314 312 311 310 310 310 311 311 312 313 313 310 309 308 307 307 307 312 325 338 344 343 341 342 341 341 342 346 344
333 323 323 326 325 325 319 317 317 319 319 316 315 314 314 314 312 309 309 309 310 313 314 313 314 314 313 311 309 307 307 308 310 321 335 344 343 341 342 341 342 348 346
333 323 321 323 325 324 319 318 318 319 319 318 316 315 313 313 312 311 311 312 312 314 311 311 312 317 318 316 316 310 308 307 308 310 318 330 345 344 342 342 342 345 348
332 322 320 321 324 322 319 319 319 319 320 318 316 315 314 314 313 313 313 316 315 315 317 313 311 313 319 323 320 319 316 309 307 308 309 324 337 343 344 342 342 343 346
333 323 320 319 321 322 320 319 319 319 320 319 317 316 315 315 315 315 320 323 324 325 322 322 322 326 323 330 329 326 323 321 313 307 321 323 328 338 340 343 342 342 343
333 335 320 319 320 321 320 320 320 320 320 320 319 319 318 316 316 317 325 327 326 326 327 328 328 327 329 327 330 331 327 326 322 324 324 325 328 335 340 339 343 343 343
333 334 332 319 320 321 321 320 320 320 320 320 320 320 320 318 317 321 329 328 327 327 330 331 330 331 330 330 329 328 326 330 328 331 327 327 330 330 331 339 342 344 344
334 334 335 325 320 321 321 321 321 321 321 322 321 320 320 320 318 319 330 330 323 323 324 322 321 325 330 330 328 326 323 326 333 333 332 329 331 330 329 327 339 344 344
334 335 335 334 320 321 322 322 322 323 323 323 323 322 321 321 320 322 327 323 323 323 320 320 319 319 324 327 330 326 328 325 326 334 332 332 330 329 326 322 335 341 343
336 335 336 339 331 321 323 323 323 323 323 324 324 323 322 321 321 327 330 325 324 325 323 322 321 317 317 325 328 327 324 326 327 332 332 333 332 330 328 318 332 339 342
334 336 337 336 340 336 327 325 324 324 322 323 325 325 324 326 334 335 334 332 330 329 324 324 322 320 316 318 321 324 325 327 330 331 332 332 333 331 329 320 326 336 341
332 334 335 337 337 341 339 339 337 327 323 324 326 334 337 337 335 333 332 332 330 329 327 325 322 319 316 325 328 328 328 329 329 331 331 331 331 332 330 316 323 334 339
331 333 335 336 337 339 340 339 343 341 339 338 338 339 338 336 332 332 333 333 333 331 330 331 329 329 329 328 329 330 331 330 328 329 329 329 330 331 329 314 321 335 338
329 333 333 336 337 338 340 338 340 341 340 340 339 340 338 335 333 334 333 332 333 331 332 330 329 329 329 328 329 329 327 329 329 327 329 330 330 330 326 314 317 331 336
329 330 333 334 337 336 338 338 339 339 339 338 337 335 335 332 332 334 334 333 332 332 331 330 329 328 328 326 327 327 327 328 327 330 330 327 327 329 322 317 315 323 334
329 330 334 334 336 337 338 337 339 339 337 336 334 333 332 332 333 334 333 332 333 332 332 329 329 328 328 328 327 327 328 330 328 329 330 326 329 327 317 320 316 317 331
328 331 335 334 338 339 340 339 341 339 333 329 332 331 332 334 332 330 333 333 331 330 330 328 329 328 327 328 326 329 328 329 329 327 327 330 331 325 313 319 317 317 327
329 331 335 335 339 342 344 343 341 337 333 332 331 332 335 334 330 333 334 334 332 330 328 328 329 328 328 327 327 329 328 328 330 331 329 330 328 328 330 320 318 318 326
331 334 336 337 339 343 344 343 340 335 333 331 332 333 334 335 334 332 332 331 328 327 329 327 326 328 327 326 328 327 328 329 329 329 330 328 327 329 331 330 319 319 330
333 334 338 338 338 341 344 341 336 334 333 331 332 333 334 335 333 335 333 330 329 329 327 325 326 326 328 328 328 327 328 329 329 330 327 327 329 330 330 334 332 324 331
333 336 336 336 338 342 341 337 334 333 333 332 332 333 334 334 333 334 331 329 329 328 327 325 326 326 327 326 325 326 326 327 329 327 327 328 330 331 330 331 330 336 333
336 336 336 337 340 340 337 334 332 332 332 332 333 334 335 334 333 334 331 330 329 328 327 325 325 325 322 324 324 328 327 327 328 327 327 330 330 332 331 332 333 334 332
336 337 337 338 339 336 334 333 333 333 333 333 331 333 332 331 334 330 330 329 328 326 327 326 327 325 326 326 324 327 328 328 327 328 329 330 329 331 330 331 334 332 330
336 337 337 338 337 335 334 334 333 332 331 332 333 331 334 332 331 331 328 328 326 328 328 327 325 325 325 326 325 325 328 328 328 329 328 330 329 329 331 330 332 332 331
336 336 337 337 336 336 333 333 333 331 330 331 331 333 332 331 329 328 329 327 328 327 325 325 325 325 326 326 327 327 328 330 328 327 330 329 328 328 329 329 332 333 331
335 336 337 337 336 335 334 334 333 334 332 332 333 333 331 330 329 328 330 328 328 325 325 326 327 328 326 326 328 327 328 328 327 330 330 330 330 330 330 332 333 333 332

GFSSE_850_thetae_033.txt.gz
Theta_e
338 323 322 323 321 320 317 317 316 315 314 313 313 313 312 312 312 311 310 309 309 309 309 310 310 311 311 311 309 308 307 308 310 324 341 344 345 343 342 341 341 338 331
326 322 323 323 322 320 318 318 317 317 316 315 314 314 314 313 313 313 312 310 310 310 310 312 311 311 311 311 312 311 308 308 307 308 322 340 343 343 341 341 341 344 341
324 323 322 322 321 320 319 318 318 318 317 317 316 315 315 314 314 314 314 314 314 314 313 312 314 311 310 311 313 313 313 310 308 307 308 316 337 343 342 341 341 342 346
326 324 323 321 321 320 319 319 319 318 318 317 316 316 316 315 314 314 315 318 320 321 316 320 321 322 318 312 312 315 317 316 314 308 307 308 320 335 337 339 340 341 344
329 324 322 321 321 320 320 319 319 318 318 318 318 319 319 318 317 315 316 320 322 324 323 325 325 327 326 325 323 320 319 320 318 316 309 307 311 328 326 334 338 341 341
332 327 321 321 321 320 320 319 319 319 319 319 320 320 321 321 320 317 316 319 324 326 326 328 332 332 332 332 329 330 329 324 321 319 317 309 319 324 335 338 337 340 341
333 334 324 320 320 321 320 319 319 319 319 320 320 321 321 321 321 321 319 318 321 330 328 323 328 328 332 330 330 330 330 329 322 322 320 317 323 325 326 328 332 338 341
335 333 334 328 320 320 321 321 319 319 319 320 321 321 321 322 322 321 321 320 322 328 326 321 321 321 319 319 319 329 331 328 327 321 323 326 331 328 329 328 326 331 339
335 335 334 334 333 321 320 320 320 320 320 320 320 321 321 321 322 322 321 322 327 330 327 327 326 323 320 319 318 318 324 329 328 321 325 328 331 330 330 328 325 322 332
335 335 334 334 334 332 321 320 320 321 320 320 320 321 322 322 322 322 322 324 330 332 330 329 329 327 324 324 321 317 317 323 328 325 323 327 334 332 331 330 330 325 318
334 336 335 335 334 334 334 325 320 321 321 320 320 321 322 323 324 323 324 327 330 330 330 331 329 327 325 324 320 318 316 318 322 325 324 322 331 331 332 331 330 329 317
331 333 335 335 335 335 335 335 327 320 321 321 321 321 322 323 324 325 328 327 329 331 332 332 329 329 328 328 325 317 323 325 326 322 320 325 329 331 332 331 331 331 326
330 331 333 335 335 336 336 336 333 322 320 321 322 322 321 321 323 328 334 333 332 333 334 332 330 330 329 328 327 327 329 330 327 326 323 328 331 330 330 330 329 330 329
330 330 329 333 335 336 337 336 335 336 332 322 322 322 323 322 324 335 337 334 333 333 333 331 330 330 329 328 328 329 328 328 327 330 329 329 329 331 330 330 329 328 328
330 329 329 328 333 335 337 337 336 336 336 336 335 335 329 324 331 335 338 331 331 333 333 332 333 331 330 329 328 329 329 328 328 329 329 330 329 331 331 329 327 328 327
329 329 328 328 328 328 332 337 336 336 336 338 339 337 332 335 337 337 332 332 335 335 334 333 331 331 331 329 328 327 326 326 326 327 329 328 330 331 330 329 327 327 323
329 328 328 328 327 328 332 338 337 338 338 339 340 340 339 340 338 335 331 334 334 334 334 331 331 330 330 328 328 327 326 326 326 326 327 327 330 330 329 327 326 325 317
329 327 327 328 327 329 334 337 340 341 341 341 342 341 341 338 335 332 330 332 334 334 331 331 332 330 328 328 328 327 327 326 327 327 327 329 329 329 328 328 318 317 316
327 327 329 329 328 329 334 337 339 341 341 341 342 340 337 334 332 331 332 329 332 332 333 332 331 329 328 327 327 327 327 328 328 325 327 327 328 328 327 328 329 316 318
327 328 330 329 330 332 335 338 340 339 341 342 339 336 333 332 332 334 333 332 332 332 332 331 329 328 328 325 326 327 326 325 325 325 326 326 326 326 328 327 329 328 319
327 328 331 331 333 334 338 340 341 341 342 342 340 332 332 332 333 334 333 334 332 331 332 330 329 329 327 325 327 328 325 324 325 324 326 324 325 326 326 327 329 331 319
327 330 332 331 334 336 340 343 342 341 342 340 338 332 332 333 333 334 332 330 331 331 329 329 329 328 326 326 326 325 324 324 324 324 325 328 325 325 328 328 330 330 325
330 331 332 333 338 341 343 342 342 342 339 334 333 332 332 333 334 334 331 329 330 328 328 328 327 326 324 324 323 321 324 324 324 325 326 328 327 326 328 330 329 330 325
333 333 332 333 339 340 342 340 338 335 335 334 333 333 333 334 334 333 330 328 328 328 328 326 326 326 324 324 324 324 324 326 326 324 327 327 327 325 328 327 330 326 324
334 333 333 335 337 340 340 338 336 335 334 333 333 333 333 333 332 330 331 328 327 326 326 326 326 326 325 325 324 325 324 324 324 326 325 326 327 324 325 328 326 324 327
335 335 335 335 338 339 335 336 334 332 334 333 332 332 333 333 333 330 329 327 326 325 326 325 325 325 325 325 325 326 325 324 324 322 326 326 326 323 328 329 325 327 329

GFSSE_850_thetae_036.txt.gz
Theta_e
328 324 323 323 322 320 318 318 319 318 318 318 316 315 314 313 313 313 311 310 309 309 309 309 309 310 310 310 309 308 307 308 311 324 340 343 344 345 343 341 341 332 330
325 323 323 322 321 319 319 319 320 319 319 318 318 317 316 315 314 314 314 315 313 311 311 311 311 310 310 310 310 310 308 307 307 308 319 339 343 342 342 341 341 339 331
324 324 323 322 321 320 319 320 320 319 319 318 318 318 317 316 315 314 315 317 318 318 316 313 313 315 312 310 310 312 311 311 308 307 307 319 339 343 341 340 341 342 342
325 324 324 322 322 320 320 320 320 319 319 319 319 319 319 318 317 316 315 317 319 320 320 318 322 323 323 317 312 310 313 314 313 309 307 307 320 341 341 341 341 341 343
325 323 323 322 321 320 320 320 320 319 319 319 320 320 320 320 320 319 317 316 318 321 322 322 323 325 327 327 325 321 315 316 316 314 310 307 309 330 335 328 336 340 341
329 323 323 323 322 321 320 320 320 319 319 320 320 321 321 321 321 321 320 317 316 321 323 323 326 331 332 332 332 329 329 324 319 319 316 307 308 325 327 328 334 337 341
332 330 325 323 322 321 321 321 321 320 319 320 320 320 321 321 321 322 321 320 318 320 328 326 321 328 326 330 332 330 329 330 326 319 319 311 316 323 327 332 336 337 338
330 331 332 326 322 322 321 321 321 320 320 320 320 320 321 321 321 322 322 321 321 323 325 323 321 322 321 320 319 319 325 331 329 324 321 318 322 325 325 328 328 329 333
332 332 332 333 325 322 321 321 321 320 320 320 320 320 320 321 321 321 321 321 322 326 328 327 327 327 325 322 319 319 317 321 329 328 319 324 325 325 327 329 324 322 321
333 334 334 333 333 330 326 321 321 320 320 320 319 320 320 321 321 321 322 322 323 328 329 329 330 329 328 326 324 324 319 317 319 327 325 324 329 330 329 329 330 330 321
335 335 335 334 334 334 333 330 320 320 320 320 319 320 320 321 322 322 323 323 327 327 330 330 331 329 327 325 325 322 319 316 317 322 327 323 329 332 331 330 330 330 329
333 333 335 334 334 334 334 334 328 321 321 321 320 319 320 321 322 323 323 325 329 329 332 332 331 329 329 328 327 325 318 317 320 321 319 323 322 330 330 330 330 330 330
331 331 332 333 334 334 334 334 334 331 324 321 321 320 320 320 321 322 322 326 332 330 331 333 332 330 329 328 328 325 326 328 328 326 325 320 326 329 330 330 330 330 330
331 331 330 329 332 334 335 335 335 335 334 329 322 321 321 320 321 321 321 327 331 330 331 333 332 330 330 329 328 328 328 327 328 327 328 325 328 330 330 330 330 328 327
331 330 329 329 330 332 334 335 335 336 336 335 328 322 321 322 322 321 322 328 333 332 331 332 332 331 331 329 330 328 329 328 327 327 327 329 329 329 330 331 330 328 328
330 330 329 329 329 328 330 332 334 335 336 336 336 330 324 324 326 323 325 332 337 333 332 333 330 331 330 330 331 329 328 328 326 327 326 328 330 328 328 330 331 329 327
329 330 329 329 328 328 327 328 331 330 333 337 337 337 338 338 332 330 335 335 334 331 335 332 332 331 331 331 330 329 328 326 326 326 326 326 328 328 330 330 329 328 326
328 329 329 328 327 328 328 328 328 329 335 338 338 339 340 339 338 338 336 335 331 333 334 335 334 331 331 331 329 328 328 327 326 326 326 327 327 328 330 328 327 326 324
329 329 329 327 327 329 329 328 329 332 338 339 340 341 341 340 340 337 337 332 331 331 333 333 332 332 331 329 327 327 328 326 326 326 327 327 327 328 328 328 328 324 318
329 328 327 328 329 329 329 329 332 338 341 341 342 343 342 341 338 336 332 333 332 330 330 331 330 330 329 328 328 326 326 327 327 327 326 326 327 328 328 327 327 329 319
328 328 327 327 327 328 330 332 337 342 343 343 342 341 338 334 332 332 333 333 330 331 332 329 328 329 328 328 327 325 326 326 325 325 325 326 327 327 327 326 327 329 330
328 328 327 327 328 330 332 334 339 342 343 342 340 338 336 334 332 333 332 333 332 331 330 328 327 327 328 327 325 327 326 325 324 323 324 325 327 325 326 326 327 328 330
327 327 327 328 330 332 335 340 342 342 341 342 341 339 336 332 332 332 333 334 331 328 329 327 328 327 326 325 326 326 323 324 324 323 323 324 325 325 325 327 327 327 330
327 329 330 331 333 335 339 343 343 341 340 341 338 335 332 332 332 332 333 332 330 328 328 328 327 325 324 323 324 324 322 325 326 324 324 325 328 327 326 328 328 328 329
329 330 333 333 335 341 342 342 340 340 337 332 332 332 332 333 333 333 333 331 329 327 326 326 326 326 326 324 325 325 324 324 325 325 325 326 326 326 326 327 327 327 325
332 333 334 333 339 341 341 341 336 334 335 334 333 334 333 333 333 332 331 329 327 324 324 325 325 325 325 325 325 324 325 324 324 322 325 326 326 327 325 326 325 324 324

GFSSE_850_thetae_042.txt.gz
Theta_e
326 324 322 321 320 319 316 316 316 317 318 318 318 317 317 316 315 314 313 312 311 310 309 309 309 309 309 308 308 308 308 309 313 323 338 342 342 342 344 341 339 337 337
326 324 323 322 322 320 318 318 318 318 318 318 318 319 318 317 317 316 316 315 315 314 312 311 310 309 309 309 309 309 309 307 307 308 313 324 337 341 342 342 341 337 334
326 325 323 323 322 321 320 319 319 319 319 319 319 319 318 318 317 317 316 316 315 316 316 316 315 313 313 312 310 309 310 310 309 307 307 308 321 337 340 341 341 340 335
326 325 324 324 323 322 320 320 320 319 319 319 319 319 318 318 318 318 317 317 316 316 317 317 318 320 322 323 322 315 310 310 311 310 308 307 310 333 341 340 341 341 338
325 325 324 325 324 323 321 321 320 319 319 319 319 319 319 319 319 319 319 318 317 316 318 318 319 321 323 326 327 326 325 316 312 313 312 308 306 324 341 341 341 340 341
325 325 324 325 325 324 322 321 320 320 319 319 319 319 319 320 320 321 321 320 319 317 319 321 319 320 326 330 332 332 332 329 327 315 315 313 307 311 334 340 339 340 340
326 326 325 325 325 324 323 321 321 320 319 319 319 319 320 320 320 321 321 321 321 320 320 321 321 321 322 325 329 325 330 329 327 329 318 316 312 307 321 333 335 331 337
327 326 326 326 325 325 324 322 321 321 320 319 319 319 320 320 320 321 321 321 321 321 322 323 322 324 324 324 323 322 320 318 318 326 327 319 316 311 318 324 329 332 334
329 328 329 328 326 324 323 322 321 321 320 320 319 319 319 320 320 321 321 321 321 321 323 323 324 326 327 326 325 324 322 320 319 316 329 324 321 316 321 325 325 328 330
332 331 330 328 327 326 324 322 321 320 320 320 320 319 319 319 320 320 321 321 321 321 323 323 324 325 325 326 325 325 324 324 324 319 317 329 322 321 324 324 324 326 326
331 331 332 331 331 328 325 323 321 321 320 319 319 319 319 319 319 320 320 320 321 322 323 324 324 327 327 326 327 326 326 325 323 319 316 321 325 323 324 325 325 325 326
332 331 331 332 332 331 328 325 323 322 321 320 320 319 319 319 319 319 320 320 321 323 324 326 326 330 329 327 327 327 326 323 323 317 315 317 326 323 326 326 324 325 328
332 332 331 332 333 333 333 332 329 326 323 322 321 320 319 318 318 318 319 320 321 322 323 327 327 329 331 328 327 328 327 325 322 323 325 322 321 325 324 329 327 326 328
331 332 332 332 333 333 333 333 333 331 328 327 324 323 320 319 317 318 318 319 320 321 322 329 329 329 331 330 328 328 328 327 327 327 327 326 326 322 324 324 327 327 329
328 330 330 330 330 331 332 332 333 333 333 329 327 326 322 321 318 317 318 318 319 320 321 327 331 329 330 331 330 330 328 329 327 327 326 327 327 325 322 323 324 327 329
327 327 327 327 327 328 329 329 330 332 333 333 331 330 326 323 320 318 319 320 318 320 320 327 334 330 330 331 329 330 330 328 329 328 327 327 326 327 326 327 326 326 330
326 326 326 326 328 328 328 328 329 329 331 332 333 333 332 329 325 320 320 321 319 319 322 333 334 332 331 330 329 331 330 329 330 328 327 327 325 326 326 327 327 327 329
326 325 326 326 326 327 328 328 328 328 330 331 331 332 332 333 333 328 324 322 322 322 323 335 333 332 331 329 328 330 330 329 329 329 328 327 325 325 326 327 327 328 329
325 325 326 327 327 327 327 328 328 329 329 329 331 331 332 335 337 336 330 325 326 326 332 333 332 332 332 330 330 331 329 327 328 327 327 327 326 325 326 326 328 329 329
324 326 326 327 326 326 328 327 328 329 329 329 331 333 335 337 338 335 335 336 333 332 335 331 331 331 332 332 329 327 327 327 327 327 327 327 326 325 326 326 329 327 327
325 325 326 326 327 326 328 328 329 329 328 329 332 335 337 339 338 338 339 338 337 334 332 329 330 331 331 328 328 326 327 327 327 326 327 326 327 326 326 326 328 328 328
323 324 324 325 327 328 328 328 328 328 328 331 335 338 340 340 340 340 340 335 333 332 332 331 330 328 328 328 326 327 327 326 325 325 326 326 325 324 325 326 328 326 326
323 323 323 324 327 327 328 328 328 329 330 334 337 340 341 342 342 339 334 332 332 332 333 330 330 328 328 327 327 327 325 325 324 326 326 326 324 324 326 327 328 327 325
322 322 322 324 327 327 327 328 329 330 333 336 339 341 341 341 338 336 331 332 332 332 331 331 329 328 327 327 327 326 324 324 325 324 324 323 323 324 326 326 325 325 326
319 321 324 325 328 328 329 330 333 335 338 340 341 340 338 336 333 333 332 331 331 331 332 330 327 326 326 326 324 324 325 324 322 324 324 324 324 326 325 326 326 325 325
322 321 324 327 329 330 333 334 337 339 340 341 340 338 336 333 331 331 332 332 331 332 331 327 324 325 325 325 325 323 323 323 323 323 323 325 325 326 326 326 325 327 327

GFSSE_850_thetae_045.txt.gz
Theta_e
326 325 322 321 319 319 317 317 316 315 315 314 313 313 313 313 313 313 313 313 312 312 310 309 309 309 309 309 308 308 308 309 313 319 332 342 342 342 344 341 340 341 337
327 325 323 321 320 319 319 318 318 317 316 316 316 315 315 314 314 314 315 314 314 315 314 313 311 310 310 309 309 309 309 308 307 308 313 323 336 342 342 342 340 339 336
326 325 323 322 320 321 320 319 319 318 318 317 316 317 317 317 316 315 315 315 315 316 316 316 315 314 314 313 312 310 310 310 309 308 307 308 316 332 340 341 341 337 336
326 325 325 323 322 322 321 320 319 319 318 318 318 318 318 318 318 318 317 316 316 316 317 317 318 319 321 322 322 319 315 310 310 310 309 307 307 318 335 341 340 341 336
326 325 325 324 323 323 323 322 320 319 318 318 318 318 318 318 319 319 319 318 317 317 318 318 319 320 322 325 327 327 326 323 314 311 311 310 307 309 327 339 340 340 341
326 325 325 324 324 324 324 322 321 320 319 318 319 318 318 319 320 320 321 321 320 318 318 319 319 320 322 327 330 330 332 330 328 323 313 313 311 307 317 335 340 340 340
326 325 325 324 324 324 325 323 322 321 319 319 319 319 319 319 320 320 321 321 321 321 319 320 320 320 321 322 322 326 324 329 329 332 325 315 315 308 308 321 337 338 339
326 325 326 324 324 324 324 322 321 320 320 320 319 319 319 319 320 320 321 321 321 322 321 321 320 321 323 324 324 323 322 321 322 323 329 321 317 313 308 316 325 332 332
326 326 326 325 325 324 323 322 321 319 320 319 319 318 319 319 320 320 320 321 321 321 322 322 321 322 323 325 325 324 324 322 321 324 319 329 319 317 313 316 321 329 332
329 328 326 325 325 325 325 324 322 321 319 319 319 318 318 318 319 320 320 321 321 321 322 323 322 324 324 325 325 325 324 324 324 325 324 324 327 320 317 320 323 324 327
332 332 330 328 327 327 325 324 323 321 321 320 318 318 318 318 318 319 320 320 321 321 322 323 324 325 326 325 325 326 326 327 325 325 328 318 326 323 320 322 323 324 325
332 332 331 331 331 330 328 326 324 322 322 321 320 318 318 318 318 318 319 320 320 321 322 323 326 327 328 328 326 326 327 326 322 321 320 316 316 326 322 323 325 324 324
332 332 332 331 332 332 332 331 329 326 324 322 321 320 317 317 317 318 318 319 320 320 322 323 326 328 331 330 327 327 327 326 326 323 325 319 317 322 324 324 326 325 324
328 329 331 333 333 332 333 333 333 331 330 327 323 321 319 318 317 317 318 318 319 319 320 322 324 328 329 330 329 328 328 328 327 327 327 327 326 322 323 323 326 328 325
327 327 328 328 331 330 329 329 330 332 333 333 329 325 322 320 319 316 317 317 318 318 319 321 322 331 331 330 331 330 329 329 328 327 327 327 327 326 322 321 324 325 325
327 326 327 327 326 326 326 327 327 328 330 332 332 331 327 322 320 319 317 316 317 318 319 319 321 330 333 331 331 330 329 329 328 328 328 328 327 327 325 323 322 323 324
326 326 326 325 325 325 325 326 327 327 328 328 330 332 333 329 325 322 321 318 317 318 319 319 321 325 334 332 331 330 328 330 329 329 329 328 329 326 327 326 326 326 324
325 325 325 325 325 325 325 326 326 327 327 328 329 331 332 333 332 329 330 325 319 318 320 319 320 325 334 331 331 330 328 329 330 330 329 328 327 326 325 325 326 326 326
324 324 325 324 325 325 326 326 326 326 327 328 329 330 331 333 334 334 335 332 325 321 319 320 322 332 332 331 331 330 329 330 329 327 328 327 327 326 325 326 327 327 327
322 323 324 324 324 325 325 326 326 327 327 328 329 330 332 334 335 336 337 334 328 324 323 324 332 332 331 332 332 331 330 327 327 327 327 327 327 326 325 325 326 329 329
322 324 323 323 324 323 325 326 326 327 327 328 329 331 333 335 336 339 336 332 334 334 330 335 331 329 330 330 330 328 327 326 327 327 327 326 327 326 325 326 326 329 329
322 322 323 323 323 323 324 327 327 327 328 329 331 333 335 337 339 338 337 338 336 335 335 333 331 330 329 328 329 328 329 329 327 327 326 326 326 326 326 326 326 328 327
321 322 322 322 323 322 324 327 327 328 329 330 331 333 336 340 339 340 340 336 335 334 333 332 332 330 329 328 328 329 329 328 328 326 325 325 326 326 324 325 326 328 326
320 321 321 320 321 322 324 327 328 328 329 329 331 335 340 340 341 341 337 335 332 332 332 332 331 331 329 328 328 327 327 325 328 327 325 326 326 324 324 326 326 328 328
317 318 318 319 321 324 326 327 328 329 331 334 337 340 341 341 341 339 333 331 331 331 332 333 331 330 327 327 328 327 326 324 323 326 328 325 322 324 325 326 327 327 325
317 318 320 320 321 326 329 329 331 332 335 338 340 341 340 339 337 339 332 332 332 331 332 332 329 326 325 325 325 324 326 326 327 326 325 325 324 324 326 325 326 326 325

GFSSE_850_thetae_048.txt.gz
Theta_e
329 326 325 323 320 318 317 318 318 316 315 314 313 313 313 313 313 313 313 312 312 311 311 310 309 309 309 309 309 308 308 308 311 317 326 340 343 342 343 341 338 345 341
327 326 324 322 320 318 317 318 318 318 317 316 315 314 314 314 314 314 314 314 314 313 313 313 313 311 310 309 309 309 309 309 308 308 312 320 337 342 342 342 340 345 337
327 326 324 323 321 319 317 318 318 318 318 318 317 316 316 315 315 316 316 316 315 315 316 316 316 315 314 313 312 311 310 309 309 309 308 316 328 330 341 342 341 342 338
327 326 324 323 322 320 319 318 319 319 319 319 319 318 317 317 317 317 317 317 316 316 317 317 318 319 320 322 322 319 316 312 310 310 322 322 319 315 326 340 341 340 338
326 326 325 324 323 322 320 319 319 319 319 319 319 319 318 318 317 318 319 318 318 317 318 318 318 319 321 323 326 327 326 324 317 317 327 326 324 320 314 332 341 340 341
326 326 325 324 324 323 321 319 320 319 319 319 319 319 318 318 318 319 320 320 319 318 318 319 319 319 321 324 325 328 330 331 328 336 331 328 319 321 310 321 337 340 341
327 326 325 325 324 322 320 319 319 319 319 319 319 318 318 318 319 320 320 321 320 320 320 319 319 320 321 322 322 323 324 326 331 335 336 334 329 315 307 311 330 339 339
327 326 325 324 323 323 321 320 319 319 319 319 318 318 318 318 318 319 320 321 321 321 321 321 320 320 322 323 324 324 323 322 330 332 334 336 333 315 311 307 321 334 334
327 326 325 325 324 323 322 322 320 318 319 319 318 318 317 318 318 319 320 320 321 321 322 322 321 321 322 323 324 324 325 324 326 332 331 333 335 320 314 309 319 327 331
327 326 325 325 325 323 322 322 321 320 318 318 318 318 317 317 317 318 319 320 321 321 321 322 323 322 323 322 323 323 324 324 329 333 333 331 332 326 319 312 315 324 330
335 328 327 326 325 324 323 323 322 321 320 317 317 318 317 316 316 317 318 320 320 321 321 322 323 324 324 324 324 324 324 334 334 333 332 332 324 327 322 318 315 323 326
336 336 330 329 328 326 325 324 326 323 322 320 319 318 317 316 321 322 321 319 320 320 321 321 323 324 325 336 337 329 331 333 332 332 331 329 318 318 327 322 319 318 324
337 338 340 333 333 331 329 329 329 328 326 324 322 320 318 319 327 327 330 320 319 320 320 321 322 324 337 337 336 334 333 333 331 331 331 324 316 316 322 324 322 322 322
334 336 338 335 330 332 334 333 333 332 332 331 329 324 320 321 324 330 332 332 324 329 321 331 334 336 338 337 336 335 334 333 331 332 332 328 326 324 318 325 323 325 323
332 332 333 330 327 328 330 332 331 330 331 334 336 335 330 333 331 333 332 331 332 332 331 333 333 336 337 337 336 336 335 334 333 332 332 332 327 326 326 323 323 324 327
330 331 332 327 327 326 326 326 326 326 328 331 339 339 336 335 333 333 333 333 331 332 331 334 332 335 336 335 336 336 336 333 333 333 332 333 330 327 326 325 320 323 324
329 330 327 327 326 325 325 325 325 325 326 327 333 337 338 337 335 333 335 334 332 331 332 331 332 334 333 336 336 335 336 334 333 333 334 332 332 330 327 326 324 323 323
331 329 326 326 326 325 325 324 325 325 326 327 332 338 335 336 337 336 336 335 333 332 332 331 330 331 330 334 333 335 333 333 333 334 334 333 332 331 331 326 326 326 326
327 324 324 325 325 325 324 324 325 325 326 328 330 337 336 335 337 338 337 336 335 334 332 330 330 329 330 333 336 335 332 333 333 332 332 332 329 332 331 330 327 326 326
327 322 322 323 323 324 323 324 324 326 327 330 334 338 336 336 336 335 339 339 336 335 332 331 329 329 333 335 334 335 334 331 329 330 332 331 327 333 333 331 332 328 327
326 320 321 321 323 323 323 323 324 330 337 339 340 338 334 336 337 335 340 337 336 333 330 329 331 328 335 334 333 332 333 332 332 332 332 332 331 331 332 333 331 332 330
326 321 321 321 322 323 322 322 331 338 341 342 341 336 335 338 337 337 340 337 335 336 334 332 332 337 335 332 333 332 331 330 331 332 330 331 329 329 332 331 331 332 333
325 325 321 320 321 321 320 321 325 335 332 332 337 341 338 338 338 339 338 339 335 336 336 335 335 335 335 333 331 331 331 330 331 331 332 330 329 327 327 331 330 330 332
324 324 326 320 320 320 319 323 327 338 339 341 343 343 335 338 340 339 339 336 334 338 338 334 335 332 333 332 329 330 331 330 330 331 330 329 328 326 326 329 328 329 331
322 323 324 319 318 319 319 326 329 339 344 343 344 339 340 340 340 340 339 335 337 337 336 336 333 332 332 332 331 331 330 330 330 330 330 330 328 327 325 325 326 327 328
320 321 323 319 318 319 322 326 329 342 344 344 345 345 343 342 341 341 339 338 336 337 335 333 333 332 329 330 330 330 329 329 329 329 330 330 328 326 325 326 327 327 328